Grant County, OR

3:05 PM PDT on May 26, 2017 (GMT -0700)
Grant County Regional

Weather History for KGCD - October, 2012

Change the Weather History Date:

Friday, October 5, 2012

  Actual Average (KBNO) Record (KBNO)
Temperature  
Mean Temperature 44 °F -  
Max Temperature 60 °F 67 °F 86 °F (1958)
Min Temperature 28 °F 28 °F 16 °F (2012)
Degree Days  
Heating Degree Days 21    
Moisture  
Dew Point 14 °F    
Average Humidity 32    
Maximum Humidity 55    
Minimum Humidity 14    
Precipitation  
Precipitation 0.00 in - - ()
Sea Level Pressure  
Sea Level Pressure 30.25 in    
Wind  
Wind Speed 5 mph (SSE)    
Max Wind Speed 12 mph    
Max Gust Speed -    
Visibility 10 miles    
Events      
Averages and records for this station are not official NWS values.
T = Trace of Precipitation, MM = Missing Value Source: NWS Daily Summary

Daily Weather History Graph

Daily Weather History Graph

Search for Another Location

Airport or City:

Trip Planner

Search our weather history database for the weather conditions in past years. The results will help you decide how hot, cold, wet, or windy it might be!

Date:

Astronomy

Oct. 05, 2012 Rise Set
Actual Time 6:59 AM PDT 6:28 PM PDT
Civil Twilight 6:30 AM PDT 6:57 PM PDT
Nautical Twilight 5:56 AM PDT 7:30 PM PDT
Astronomical Twilight 5:22 AM PDT 8:04 PM PDT
Moon 9:45 PM PDT (10/5) 12:21 PM PDT (10/5)
Length of Visible Light 12h 26m
Length of Day
11h 28m
Waning Gibbous, 73% of the Moon is Illuminated
Oct 5
Waning Gibbous
Oct 8
Last Quarter
Oct 15
New
Oct 21
First Quarter
Oct 29
Full

Hourly Weather History & Observations

Time (PDT) Temp. Windchill Dew Point Humidity Pressure Visibility Wind Dir Wind Speed Gust Speed Precip Events Conditions
12:15 AM 41.0 °F - 17.6 °F 39% 30.25 in 10.0 mi Calm Calm - N/A   Clear
12:35 AM 37.4 °F 32.8 °F 17.6 °F 45% 30.25 in 10.0 mi East 5.8 mph - N/A   Clear
12:55 AM 35.6 °F 30.7 °F 15.8 °F 44% 30.25 in 10.0 mi East 5.8 mph - N/A   Clear
1:15 AM 33.8 °F 27.7 °F 14.0 °F 44% 30.26 in 10.0 mi East 6.9 mph - N/A   Clear
1:35 AM 35.6 °F 29.9 °F 14.0 °F 41% 30.26 in 10.0 mi East 6.9 mph - N/A   Clear
1:55 AM 33.8 °F 27.7 °F 14.0 °F 44% 30.27 in 10.0 mi East 6.9 mph - N/A   Clear
2:15 AM 33.8 °F 27.7 °F 14.0 °F 44% 30.27 in 10.0 mi East 6.9 mph - N/A   Clear
2:35 AM 33.8 °F 27.7 °F 15.8 °F 48% 30.27 in 10.0 mi East 6.9 mph - N/A   Clear
2:55 AM 33.8 °F 27.0 °F 15.8 °F 48% 30.27 in 10.0 mi East 8.1 mph - N/A   Clear
3:15 AM 32.0 °F 26.4 °F 15.8 °F 51% 30.27 in 10.0 mi East 5.8 mph - N/A   Clear
3:35 AM 32.0 °F 25.6 °F 15.8 °F 51% 30.27 in 10.0 mi East 6.9 mph - N/A   Clear
3:55 AM 32.0 °F 24.2 °F 15.8 °F 51% 30.27 in 10.0 mi East 9.2 mph - N/A   Clear
4:15 AM 32.0 °F 24.8 °F 14.0 °F 48% 30.27 in 10.0 mi ESE 8.1 mph - N/A   Clear
4:35 AM 32.0 °F 23.6 °F 14.0 °F 48% 30.27 in 10.0 mi ESE 10.4 mph - N/A   Clear
4:55 AM 32.0 °F 24.8 °F 14.0 °F 48% 30.27 in 10.0 mi ESE 8.1 mph - N/A   Clear
5:15 AM 32.0 °F 25.6 °F 14.0 °F 48% 30.27 in 10.0 mi East 6.9 mph - N/A   Clear
5:35 AM 32.0 °F 23.6 °F 14.0 °F 48% 30.27 in 10.0 mi ESE 10.4 mph - N/A   Clear
5:55 AM 32.0 °F 23.6 °F 14.0 °F 48% 30.27 in 10.0 mi ESE 10.4 mph - N/A   Clear
6:15 AM 32.0 °F 25.6 °F 14.0 °F 48% 30.27 in 10.0 mi ESE 6.9 mph - N/A   Clear
6:35 AM 30.2 °F 23.4 °F 14.0 °F 51% 30.27 in 10.0 mi East 6.9 mph - N/A   Clear
6:55 AM 28.4 °F 19.7 °F 14.0 °F 55% 30.28 in 10.0 mi ESE 9.2 mph - N/A   Clear
7:15 AM 30.2 °F 20.8 °F 14.0 °F 51% 30.28 in 10.0 mi SE 11.5 mph - N/A   Clear
7:35 AM 32.0 °F 24.8 °F 14.0 °F 48% 30.28 in 10.0 mi ESE 8.1 mph - N/A   Clear
7:55 AM 32.0 °F 23.6 °F 14.0 °F 48% 30.28 in 10.0 mi SE 10.4 mph - N/A   Clear
8:15 AM 33.8 °F 27.0 °F 14.0 °F 44% 30.29 in 10.0 mi SE 8.1 mph - N/A   Clear
8:35 AM 35.6 °F 29.9 °F 14.0 °F 41% 30.29 in 10.0 mi ESE 6.9 mph - N/A   Clear
8:55 AM 37.4 °F 32.1 °F 14.0 °F 38% 30.29 in 10.0 mi ESE 6.9 mph - N/A   Clear
9:15 AM 37.4 °F 32.1 °F 14.0 °F 38% 30.29 in 10.0 mi ESE 6.9 mph - N/A   Clear
9:35 AM 39.2 °F 37.0 °F 15.8 °F 39% 30.30 in 10.0 mi East 3.5 mph - N/A   Clear
9:55 AM 41.0 °F - 15.8 °F 36% 30.30 in 10.0 mi Calm Calm - N/A   Clear
10:15 AM 42.8 °F 41.1 °F 17.6 °F 36% 30.29 in 10.0 mi WSW 3.5 mph - N/A   Clear
10:35 AM 44.6 °F - 17.6 °F 34% 30.29 in 10.0 mi Calm Calm - N/A   Clear
10:55 AM 44.6 °F 42.2 °F 17.6 °F 34% 30.29 in 10.0 mi NW 4.6 mph - N/A   Clear
11:35 AM 48.2 °F - 17.6 °F 30% 30.29 in 10.0 mi West 5.8 mph - N/A   Clear
11:55 AM 50.0 °F - 17.6 °F 28% 30.29 in 10.0 mi WSW 4.6 mph - N/A   Clear
12:15 PM 51.8 °F - 14.0 °F 22% 30.28 in 10.0 mi Calm Calm - N/A   Clear
12:35 PM 51.8 °F - 14.0 °F 22% 30.28 in 10.0 mi SW 4.6 mph - N/A   Clear
12:55 PM 53.6 °F - 12.2 °F 19% 30.27 in 10.0 mi WNW 4.6 mph - N/A   Clear
1:15 PM 53.6 °F - 12.2 °F 19% 30.26 in 10.0 mi West 5.8 mph - N/A   Clear
1:35 PM 55.4 °F - 10.4 °F 17% 30.25 in 10.0 mi WNW 4.6 mph - N/A   Clear
1:55 PM 55.4 °F - 10.4 °F 17% 30.24 in 10.0 mi Calm Calm - N/A   Clear
2:15 PM 55.4 °F - 10.4 °F 17% 30.24 in 10.0 mi West 4.6 mph - N/A   Clear
2:35 PM 59.0 °F - 10.4 °F 15% 30.23 in 10.0 mi NW 4.6 mph - N/A   Clear
2:55 PM 59.0 °F - 10.4 °F 15% 30.22 in 10.0 mi NW 3.5 mph - N/A   Clear
3:15 PM 60.8 °F - 10.4 °F 14% 30.21 in 10.0 mi West 4.6 mph - N/A   Clear
3:35 PM 59.0 °F - 10.4 °F 15% 30.21 in 10.0 mi WNW 4.6 mph - N/A   Clear
3:55 PM 60.8 °F - 10.4 °F 14% 30.20 in 10.0 mi WNW 3.5 mph - N/A   Clear
4:15 PM 60.8 °F - 12.2 °F 15% 30.20 in 10.0 mi West 6.9 mph - N/A   Clear
4:35 PM 60.8 °F - 14.0 °F 16% 30.20 in 10.0 mi WNW 5.8 mph - N/A   Clear
4:55 PM 60.8 °F - 14.0 °F 16% 30.19 in 10.0 mi West 6.9 mph - N/A   Clear
5:15 PM 60.8 °F - 14.0 °F 16% 30.19 in 10.0 mi WNW 5.8 mph - N/A   Clear
5:35 PM 59.0 °F - 14.0 °F 17% 30.19 in 10.0 mi WNW 5.8 mph - N/A   Clear
5:55 PM 57.2 °F - 12.2 °F 17% 30.19 in 10.0 mi West 5.8 mph - N/A   Clear
6:15 PM 55.4 °F - 12.2 °F 18% 30.19 in 10.0 mi West 4.6 mph - N/A   Clear
6:35 PM 53.6 °F - 14.0 °F 21% 30.20 in 10.0 mi WSW 3.5 mph - N/A   Clear
6:55 PM 51.8 °F - 10.4 °F 19% 30.20 in 10.0 mi WSW 4.6 mph - N/A   Clear
7:15 PM 50.0 °F - 10.4 °F 20% 30.20 in 10.0 mi West 5.8 mph - N/A   Clear
7:35 PM 50.0 °F - 10.4 °F 20% 30.21 in 10.0 mi WSW 4.6 mph - N/A   Clear
7:55 PM 48.2 °F - 10.4 °F 22% 30.21 in 10.0 mi WSW 4.6 mph - N/A   Clear
8:35 PM 48.2 °F - 10.4 °F 22% 30.22 in 10.0 mi SW 3.5 mph - N/A   Clear
8:55 PM 46.4 °F - 10.4 °F 23% 30.22 in 10.0 mi Calm Calm - N/A   Clear
9:15 PM 46.4 °F - 10.4 °F 23% 30.23 in 10.0 mi Calm Calm - N/A   Clear
9:35 PM 44.6 °F 43.1 °F 12.2 °F 27% 30.24 in 10.0 mi ESE 3.5 mph - N/A   Clear
9:55 PM 46.4 °F - 12.2 °F 25% 30.24 in 10.0 mi Calm Calm - N/A   Clear
10:15 PM 46.4 °F - 12.2 °F 25% 30.24 in 10.0 mi Calm Calm - N/A   Clear
10:35 PM 44.6 °F - 12.2 °F 27% 30.25 in 10.0 mi Calm Calm - N/A   Clear
10:55 PM 44.6 °F 43.1 °F 14.0 °F 29% 30.25 in 10.0 mi WSW 3.5 mph - N/A   Clear
11:15 PM 44.6 °F 43.1 °F 15.8 °F 31% 30.25 in 10.0 mi West 3.5 mph - N/A   Clear
11:35 PM 42.8 °F - 15.8 °F 34% 30.25 in 10.0 mi Calm Calm - N/A   Clear
11:55 PM 42.8 °F - 15.8 °F 34% 30.26 in 10.0 mi Calm Calm - N/A   Clear